Location: Newark
(44.6394°N, 22.2943°E)
Time: 06:56:33
(UTC+00:00)

FO-29 - Pass Details

Date: 08 December 2023
Orbit: 799 x 1322 km, 98.6° (Epoch: 25 February)

Event Time Altitude Azimuth Distance (km) Brightness Sun altitude
Rises 01:05:13 0° 16° (NNE) 4,205 13.1 -50.2°
Reaches altitude 10° 01:07:54 10° 20° (NNE) 3,279 12.5 -49.8°
Enters shadow 01:09:04 15° 23° (NNE) 2,891 12.2 -49.6°
